Overview Statistics Trail Chart Weather Telemetry Raw packets
 

This is the latest recevied weather packets stored in our database for station/object F5IOR. If no packets are shown the sender has not sent any weather packets the latest 10 day(s).

<< 6 7 8 9 10 11 12 >>
Time Temp. Humidity Pressure Rain* Wind** Luminosity Snow
1788166088 20° C 65% 992.3 hPa 0 mm - - -
1788165127 19.44° C 67% 992.2 hPa 0 mm - - -
1788164647 19.44° C 67% 992.2 hPa 0 mm - - -
1788164167 19.44° C 67% 992.2 hPa 0 mm - - -
1788163687 18.89° C 70% 992.1 hPa 0 mm - - -
1788163207 18.89° C 70% 992.1 hPa 0 mm - - -
1788162967 18.33° C 73% 992.1 hPa 0 mm - - -
1788162727 18.33° C 73% 992.1 hPa 0 mm - - -
1788162487 18.33° C 73% 992.1 hPa 0 mm - - -
1788162247 18.33° C 73% 992.1 hPa 0 mm - - -
1788162139 18.33° C 73% 992.1 hPa 0 mm - - -
1788162008 18.33° C 73% 992.1 hPa 0 mm - - -
1788161888 18.33° C 73% 992.1 hPa 0 mm - - -
1788161767 18.33° C 73% 992.1 hPa 0 mm - - -
1788161707 18.33° C 73% 992.1 hPa 0 mm - - -
1788161647 18.33° C 73% 992.1 hPa 0 mm - - -
1788161588 18.33° C 73% 992.1 hPa 0 mm - - -
1788116770 20.56° C 79% 988.1 hPa 0 mm - - -
1788114970 20.56° C 78% 987.9 hPa 0 mm - - -
1788113170 21.11° C 76% 987.4 hPa 0 mm - - -
1788111370 21.67° C 76% 987.3 hPa 0 mm - - -
1788109570 23.89° C 67% 986.6 hPa 0 mm - - -
1788107770 25.56° C 59% 986.2 hPa 0 mm - - -
1788105971 27.22° C 45% 986.5 hPa 0 mm - - -
1788104170 27.78° C 46% 986.6 hPa 0 mm - - -

* Rain latest hour (hover to see other rain measurements)
** Current wind speed in m/s (hover to see current wind gust speed)